Goshen, IN

6:41 AM EST on December 13, 2017 (GMT -0500)
Goshen Municipal

Weather History for KGSH - May, 2013

Change the Weather History Date:

Thursday, May 16, 2013

  Actual Average Record
Temperature  
Mean Temperature 66 °F -  
Max Temperature 82 °F 71 °F 90 °F (1991)
Min Temperature 51 °F 49 °F 31 °F (1959)
Cooling Degree Days 2    
Growing Degree Days 16 (Base 50)    
Moisture  
Dew Point 47 °F    
Average Humidity 54    
Maximum Humidity 92    
Minimum Humidity 26    
Precipitation  
Precipitation 0.00 in - - ()
Sea Level Pressure  
Sea Level Pressure 29.90 in    
Wind  
Wind Speed 2 mph (NW)    
Max Wind Speed 9 mph    
Max Gust Speed -    
Visibility 10 miles    
Events      
Averages and records for this station are not official NWS values.
T = Trace of Precipitation, MM = Missing Value Source: NWS Daily Summary

Daily Weather History Graph

Daily Weather History Graph

Search for Another Location

Airport or City:

Trip Planner

Search our weather history database for the weather conditions in past years. The results will help you decide how hot, cold, wet, or windy it might be!

Date:

Astronomy

May. 16, 2013 Rise Set
Actual Time 6:22 AM EDT 8:56 PM EDT
Civil Twilight 5:51 AM EDT 9:28 PM EDT
Nautical Twilight 5:11 AM EDT 10:08 PM EDT
Astronomical Twilight 4:26 AM EDT 10:53 PM EDT
Moon 11:56 AM EDT (5/16) 1:16 AM EDT (5/16)
Length of Visible Light 15h 37m
Length of Day
14h 34m
Waxing Crescent, 35% of the Moon is Illuminated
May 16
Waxing Crescent
May 18
First Quarter
May 25
Full
May 31
Last Quarter
Jun 8
New

Hourly Weather History & Observations

Time (EDT) Temp. Dew Point Humidity Pressure Visibility Wind Dir Wind Speed Gust Speed Precip Events Conditions
12:53 AM 59.0 °F 50.0 °F 72% 29.82 in 10.0 mi South 3.5 mph - N/A   Clear
1:53 AM 55.9 °F 50.0 °F 80% 29.83 in 10.0 mi Calm Calm - N/A   Clear
2:53 AM 53.1 °F 48.9 °F 86% 29.85 in 10.0 mi Calm Calm - N/A   Clear
3:53 AM 53.1 °F 50.0 °F 89% 29.87 in 10.0 mi Calm Calm - N/A   Clear
4:53 AM 52.0 °F 48.9 °F 89% 29.86 in 10.0 mi Calm Calm - N/A   Clear
5:53 AM 51.1 °F 48.9 °F 92% 29.86 in 8.0 mi Calm Calm - N/A   Clear
6:53 AM 51.1 °F 48.0 °F 89% 29.87 in 6.0 mi Calm Calm - N/A   Clear
7:53 AM 57.0 °F 52.0 °F 83% 29.91 in 7.0 mi Calm Calm - N/A   Clear
8:53 AM 63.0 °F 48.9 °F 60% 29.92 in 10.0 mi Calm Calm - N/A   Clear
9:53 AM 69.1 °F 50.0 °F 51% 29.93 in 10.0 mi Calm Calm - N/A   Clear
10:53 AM 72.0 °F 46.0 °F 40% 29.93 in 10.0 mi Calm Calm - N/A   Clear
11:53 AM 75.0 °F 46.0 °F 36% 29.94 in 10.0 mi NW 4.6 mph - N/A   Clear
12:53 PM 77.0 °F 46.0 °F 33% 29.92 in 10.0 mi Variable 3.5 mph - N/A   Clear
1:53 PM 79.0 °F 45.0 °F 30% 29.93 in 10.0 mi NW 3.5 mph - N/A   Clear
2:53 PM 80.1 °F 44.1 °F 28% 29.92 in 10.0 mi NW 9.2 mph - N/A   Clear
3:53 PM 82.0 °F 44.1 °F 26% 29.91 in 10.0 mi East 6.9 mph - N/A   Clear
4:53 PM 81.0 °F 43.0 °F 26% 29.90 in 10.0 mi West 4.6 mph - N/A   Clear
5:53 PM 81.0 °F 43.0 °F 26% 29.90 in 10.0 mi NNW 5.8 mph - N/A   Clear
6:53 PM 79.0 °F 46.0 °F 31% 29.90 in 10.0 mi West 5.8 mph - N/A   Clear
7:53 PM 77.0 °F 45.0 °F 32% 29.91 in 10.0 mi NNW 5.8 mph - N/A   Clear
8:53 PM 73.9 °F 42.1 °F 32% 29.93 in 10.0 mi NNW 6.9 mph - N/A   Clear
9:53 PM 66.0 °F 45.0 °F 47% 29.95 in 10.0 mi North 3.5 mph - N/A   Clear
10:53 PM 64.0 °F 45.0 °F 50% 29.97 in 10.0 mi NNW 3.5 mph - N/A   Clear
11:53 PM 60.1 °F 45.0 °F 57% 29.98 in 10.0 mi North 5.8 mph - N/A   Clear